Temperature
31 31 31 31 31 31 31 31 30 29 29 29 29 29 29 29 28 28 27 27 26 26 25 24 23 23 22 22 21 21 20 20 20 19 19 19 19 18 18 18 18 18 18 18
29 30 31 30 31 31 31 31 30 30 29 30 30 29 28 28 27 27 27 26 26 25 24 24 23 22 22 21 21 21 20 20 19 19 19 19 19 19 18 18 18 18 18 18
28 29 30 29 31 31 31 31 30 29 29 29 29 28 27 26 26 26 26 25 25 25 24 23 23 22 22 21 21 21 20 20 19 19 19 19 19 18 18 18 18 18 18 17
27 27 26 29 31 31 30 30 30 30 29 28 27 26 26 25 24 24 24 24 24 24 23 23 23 22 21 21 21 20 20 20 19 19 19 19 18 18 18 18 18 18 18 17
26 26 27 29 30 30 29 28 29 29 28 28 27 26 25 24 24 23 23 23 23 23 23 22 22 22 21 21 20 20 20 19 19 19 19 18 18 18 18 18 18 18 17 17
26 25 26 27 29 29 29 27 28 27 27 27 26 26 24 23 23 22 22 22 22 22 22 22 21 21 20 20 20 20 19 19 19 19 18 18 18 18 18 18 17 17 17 17
25 25 26 27 28 28 26 25 26 26 25 25 25 24 23 22 22 22 21 21 21 21 21 21 20 20 20 20 19 19 19 19 19 18 18 18 18 18 18 17 17 17 17 17
25 24 24 25 26 25 24 25 25 24 24 23 23 23 22 22 21 21 21 20 20 20 20 20 19 19 19 19 19 19 19 19 18 18 18 18 18 18 17 17 17 17 17 17
24 24 24 24 24 23 23 23 23 23 23 22 22 22 21 21 20 20 20 19 19 19 19 19 19 19 19 19 18 18 18 18 18 18 18 18 18 17 17 17 17 17 17 16
23 24 24 23 23 23 22 22 22 22 22 21 21 21 21 20 20 19 19 18 18 18 18 18 18 18 18 18 18 18 18 18 18 18 17 17 17 17 17 17 17 17 17 16
22 23 22 22 22 21 21 21 21 21 21 21 20 20 20 19 19 18 18 18 18 17 17 17 17 17 17 17 17 17 17 17 17 17 17 17 17 17 17 17 17 17 17 17
22 22 21 21 21 21 20 20 20 20 20 20 20 19 19 19 18 18 17 17 17 17 16 16 16 16 16 17 17 17 17 17 17 17 17 17 17 17 17 17 17 17 17 16
21 20 20 20 20 20 19 19 19 19 19 19 18 18 18 18 18 17 17 16 16 16 16 16 16 16 16 16 16 16 16 16 16 17 17 17 17 17 17 17 17 17 16 16
19 19 19 19 19 19 19 19 18 18 18 18 18 18 17 17 17 16 16 16 15 15 15 15 15 15 15 15 15 16 16 16 16 16 16 16 17 17 17 17 17 17 16 16
18 18 18 18 18 18 18 18 18 18 17 17 17 17 17 16 16 15 15 15 15 15 15 15 15 15 15 15 15 15 15 15 16 16 16 16 16 16 16 16 16 16 16 16
18 18 17 17 17 17 17 17 17 17 16 16 16 16 16 15 15 15 15 15 14 14 14 14 14 14 15 14 14 14 15 15 15 15 16 16 16 16 16 16 16 16 16 16
17 17 17 16 16 16 16 16 16 16 16 15 15 15 15 14 14 14 14 14 14 14 14 14 14 14 14 14 14 14 14 15 15 15 15 16 16 16 16 16 16 16 16 15
16 16 16 16 15 15 15 15 15 15 15 14 14 14 14 14 14 14 14 13 13 13 13 13 13 14 14 14 14 14 14 14 15 15 15 15 15 16 16 15 15 15 15 15
15 15 15 15 15 15 14 14 14 14 14 14 14 14 13 13 13 13 13 13 13 13 13 13 13 13 13 13 13 14 14 14 15 15 15 15 15 15 15 15 15 15 15 15
15 14 14 14 14 14 14 14 14 13 13 13 13 13 13 13 13 12 12 12 12 12 12 12 13 13 13 13 13 13 14 14 14 14 15 15 15 15 15 15 15 15 15 14
14 14 14 14 13 13 13 13 13 13 13 12 12 12 12 12 12 12 12 12 12 12 12 12 12 12 12 13 13 13 13 14 14 14 14 14 14 14 14 15 14 14 14 14
13 13 13 13 13 13 13 13 12 12 12 12 12 12 12 12 12 12 12 12 12 12 12 12 12 12 12 12 12 13 13 13 13 14 14 14 14 14 14 14 14 14 14 13
12 12 12 12 12 12 12 12 12 12 12 12 12 12 12 11 12 11 11 11 11 11 11 11 12 12 12 12 12 12 13 13 13 13 13 14 14 14 14 13 13 13 13 13
12 11 11 11 11 11 11 11 11 11 11 11 11 11 11 11 11 11 11 11 11 11 11 11 11 12 12 11 12 12 12 12 13 13 13 13 13 13 13 13 13 13 13 12
11 11 11 11 11 11 11 11 11 11 11 11 11 11 11 11 11 11 11 11 11 11 11 11 11 11 11 11 11 11 11 12 12 12 12 13 13 13 12 12 12 12 12 12
11 11 11 11 11 11 11 11 11 11 11 11 11 11 11 11 11 11 11 10 10 10 10 11 11 11 11 11 11 11 11 11 12 12 12 12 12 12 12 12 12 12 11 11
11 11 11 11 11 11 11 11 11 11 11 11 11 11 11 11 10 10 10 10 10 10 10 10 10 10 10 10 11 11 11 11 11 11 11 12 12 12 12 11 11 11 11 11
Wind_Speed
15 14 12 13 14 13 13 13 12 10 9 7 2 1 2 3 3 2 3 3 4 5 5 5 5 5 5 5 6 7 7 7 7 7 7 6 6 5 6 6 7 6 5 5
15 16 16 15 16 15 15 12 11 9 8 3 2 3 3 4 3 3 3 1 2 4 5 5 5 6 5 5 5 6 6 7 6 6 6 6 6 6 6 6 6 5 6 5
15 16 17 17 14 13 11 8 8 7 4 2 3 4 4 6 5 5 3 3 3 1 3 4 5 6 5 5 6 6 6 6 6 6 6 6 7 7 6 6 6 5 6 6
14 15 18 14 9 8 8 8 7 4 1 3 3 4 7 8 7 6 5 4 3 1 1 3 4 5 5 6 5 6 7 6 6 6 6 6 6 6 6 6 6 6 6 6
12 16 16 13 8 8 6 6 7 4 1 1 1 3 6 7 6 5 5 5 4 3 1 0 2 3 4 6 6 6 6 6 6 6 6 6 6 6 5 5 6 6 6 6
12 15 15 9 7 8 7 5 5 5 3 2 2 1 2 5 5 5 5 5 5 4 2 2 2 3 2 4 5 5 5 5 6 6 6 6 6 5 5 5 6 6 6 6
14 15 11 8 9 8 7 3 6 5 4 4 3 3 3 4 4 5 5 5 5 5 4 3 2 3 2 2 3 4 4 4 5 5 6 6 5 5 5 5 6 6 6 6
11 13 8 8 7 5 5 5 5 5 5 5 4 4 4 4 5 5 5 5 5 5 4 3 2 2 2 1 0 1 2 4 4 4 5 6 5 5 5 6 6 7 6 6
6 4 3 6 6 6 6 6 6 5 5 4 4 3 3 3 4 4 4 4 4 4 4 3 2 2 2 2 2 1 1 2 3 4 3 3 4 5 6 6 6 6 6 6
7 6 6 6 7 8 7 6 7 6 5 5 4 4 3 3 2 3 4 4 4 4 4 3 3 2 1 1 1 0 1 2 3 4 4 3 4 5 5 5 6 5 5 5
9 8 9 7 7 8 7 7 7 6 5 5 5 5 4 3 2 2 2 3 3 3 2 3 3 3 2 1 1 1 2 2 4 4 4 4 5 4 5 4 5 5 5 4
8 7 7 9 9 9 8 8 7 7 6 6 6 6 5 4 2 2 2 2 3 4 4 3 3 3 2 1 2 3 3 4 4 4 4 4 5 5 5 6 7 6 5 4
7 8 8 9 9 8 8 7 7 7 6 6 6 5 5 4 3 2 2 3 3 4 4 4 3 3 3 3 3 3 5 5 4 4 4 4 5 5 5 5 5 6 7 6
6 7 8 8 9 9 9 8 7 7 7 6 6 5 5 5 4 4 4 4 4 5 5 5 4 4 4 4 4 5 7 6 5 5 4 4 5 5 5 6 5 5 6 9
7 8 9 9 9 8 8 8 7 6 6 6 6 5 5 5 5 5 5 5 5 5 5 5 5 5 4 5 6 6 7 6 5 5 5 5 5 5 6 6 5 5 4 5
8 9 9 9 9 9 9 8 6 6 6 6 6 6 6 5 5 5 6 6 6 7 6 6 6 5 5 6 6 7 6 8 7 6 6 5 5 6 5 5 5 5 5 5
8 8 9 9 8 9 9 7 7 7 7 7 7 6 6 7 6 6 6 7 7 6 6 7 6 6 5 6 7 7 6 6 8 8 7 6 5 5 4 4 4 5 5 5
8 8 9 9 9 9 8 8 7 7 7 7 7 7 7 6 6 6 6 6 7 7 7 6 5 5 6 5 5 6 7 6 6 7 6 5 5 5 5 5 6 6 4 5
7 7 7 7 8 8 7 7 7 7 7 6 6 6 6 7 7 7 7 7 7 8 7 6 5 6 6 5 5 6 7 7 7 6 6 5 6 6 6 6 5 4 4 4
6 6 7 8 8 8 7 7 7 6 6 6 6 6 6 7 7 6 6 7 6 6 5 5 5 6 5 4 5 7 7 7 7 6 5 5 6 5 6 6 5 4 4 4
7 7 7 7 7 7 6 6 6 6 6 7 6 6 6 6 6 5 5 6 4 4 6 5 5 4 4 5 6 7 7 6 6 4 4 5 5 5 4 4 4 4 3 3
6 7 8 7 8 7 7 6 6 7 6 6 7 6 6 6 5 5 4 4 4 4 4 4 4 4 5 6 5 6 7 6 5 5 5 5 4 4 4 4 3 3 3 3
6 6 6 7 7 7 7 6 6 6 6 6 6 5 5 5 4 4 5 4 4 3 4 4 4 4 5 5 6 6 6 6 6 5 5 4 4 3 3 4 3 2 2 2
6 6 6 7 7 6 7 6 5 4 5 5 5 5 4 4 4 3 4 3 3 3 4 4 3 3 4 5 5 5 5 6 5 5 4 3 3 2 2 2 2 1 1 2
6 6 6 6 6 5 6 6 6 5 5 4 4 3 3 3 3 3 3 4 3 4 4 3 4 4 4 5 5 5 5 5 5 4 4 3 3 2 2 2 2 2 2 2
5 5 5 5 5 5 5 4 4 3 3 3 3 2 2 3 3 2 2 3 4 5 4 3 3 3 4 5 5 5 5 4 4 4 4 3 3 3 2 2 2 2 2 1
4 4 3 4 4 4 4 3 3 3 2 2 2 2 3 3 4 3 4 4 3 3 3 3 3 3 4 4 4 4 4 3 3 3 3 3 2 2 2 2 1 1 0 1
Wind_Direction
280 279 278 276 273 266 261 265 272 283 289 292 291 143 147 103 95 93 108 134 142 143 141 146 147 150 161 177 170 165 169 177 179 182 179 181 178 185 186 193 194 189 194 204
284 280 276 270 268 271 270 269 266 271 279 287 1 68 64 79 87 73 65 85 115 135 142 150 159 163 166 175 165 159 168 175 172 175 176 176 176 180 188 193 192 190 196 202
282 286 288 273 270 275 274 276 281 281 296 16 30 50 42 39 36 48 34 38 40 79 147 159 166 165 171 175 171 167 172 175 171 175 177 178 185 180 184 191 191 197 201 204
273 279 270 277 286 285 286 304 309 302 337 20 71 55 50 50 45 31 15 13 9 9 125 169 172 173 173 174 170 172 174 177 174 177 182 181 183 184 185 188 193 201 208 207
267 266 266 269 289 292 285 297 321 323 349 62 125 93 68 58 48 43 17 2 4 351 330 182 149 152 174 176 175 180 183 185 182 184 185 185 191 191 192 193 199 203 203 207
258 265 268 285 320 317 297 276 356 7 4 18 347 246 59 40 36 35 24 14 7 358 24 36 71 117 155 193 185 190 190 190 186 188 190 189 195 195 199 203 207 206 208 211
254 260 266 315 336 320 287 320 21 24 10 23 31 16 31 28 29 27 23 25 20 15 30 33 44 118 140 172 194 200 191 189 191 195 197 190 193 200 203 210 210 214 215 213
263 263 269 354 350 346 352 0 7 19 13 18 26 16 22 23 23 21 21 20 14 16 20 38 40 110 130 137 283 217 198 189 191 203 216 197 192 202 207 212 218 219 216 219
280 286 356 358 354 354 357 354 352 350 353 358 345 346 356 7 14 15 12 11 2 11 10 7 15 35 80 39 22 9 220 205 207 211 210 195 201 204 210 212 219 224 219 218
294 303 327 341 342 340 343 339 334 337 337 332 322 325 334 346 0 6 3 353 350 354 353 353 353 358 39 35 38 348 249 224 221 215 216 198 211 215 220 220 221 223 225 224
288 298 306 316 334 331 328 329 325 322 320 316 315 317 321 332 342 348 339 339 338 332 334 333 335 338 352 347 315 252 253 244 242 233 217 206 212 221 218 220 216 219 228 224
287 307 306 308 318 321 321 321 319 315 312 309 304 306 314 314 320 327 320 329 327 323 323 321 319 314 312 296 278 257 249 246 249 245 228 221 217 224 226 221 208 203 205 212
310 315 313 313 317 324 320 312 313 310 305 305 307 310 310 308 308 304 307 312 307 303 304 298 287 282 282 275 264 263 265 257 256 259 250 237 227 225 229 223 213 206 201 203
322 319 306 305 310 311 311 306 302 298 300 304 307 307 305 303 307 304 298 301 299 296 292 290 275 269 271 267 259 258 264 261 254 254 257 255 252 246 240 230 219 217 210 204
301 299 297 300 302 302 302 296 287 287 294 298 299 298 299 303 302 301 298 296 294 292 293 293 283 276 270 257 252 255 260 262 259 258 255 252 256 258 254 240 229 214 194 193
296 295 296 298 299 297 298 299 296 291 291 295 300 303 303 303 305 302 300 294 284 283 286 284 276 274 272 261 256 253 252 257 257 261 260 254 247 247 247 244 235 222 212 202
286 292 298 299 295 293 296 302 304 302 298 292 291 292 291 291 289 287 289 291 286 280 277 272 272 277 278 271 263 256 253 252 248 256 254 252 252 249 251 253 249 238 232 200
283 288 294 295 296 292 295 296 294 292 291 289 286 282 283 283 284 289 291 292 291 289 286 281 282 285 280 275 273 269 261 252 243 246 251 250 253 254 252 250 247 240 231 202
285 289 291 289 288 288 289 291 292 292 292 291 290 289 292 290 287 284 286 287 284 282 285 287 286 281 280 282 283 270 266 262 251 244 246 249 251 252 252 250 244 236 227 204
300 299 298 295 291 285 284 286 290 291 290 291 291 289 289 290 293 293 292 287 285 292 299 302 288 279 285 289 283 276 273 272 269 262 252 252 257 260 259 259 252 238 231 216
311 309 305 301 299 296 294 294 295 293 293 294 291 288 290 292 294 292 288 292 303 307 306 300 288 290 290 294 282 278 276 276 274 266 260 255 254 258 259 262 263 259 244 231
307 307 307 308 306 301 299 298 296 292 291 292 291 294 295 292 290 288 285 294 303 318 308 301 296 298 299 292 280 278 275 271 265 262 256 256 257 259 260 261 257 257 245 226
305 307 307 305 304 302 297 297 297 294 292 291 289 292 295 298 296 293 296 308 310 312 302 305 312 313 302 290 284 279 282 282 274 266 261 256 256 255 254 256 250 249 258 250
298 299 299 299 300 300 296 300 301 292 284 281 280 283 286 285 285 287 305 309 309 299 306 312 284 285 285 287 292 290 289 285 283 282 275 269 263 254 249 254 248 232 233 257
296 297 298 300 296 296 300 296 289 283 283 283 280 281 287 299 307 316 321 320 322 302 302 290 259 270 281 290 291 289 287 289 293 296 292 285 268 252 240 251 257 243 234 235
286 284 290 293 295 298 297 298 298 298 295 290 300 315 328 334 326 325 320 314 310 301 304 310 305 284 281 280 276 276 276 280 285 283 279 281 266 257 247 246 251 247 240 235
281 285 289 295 304 312 313 316 311 307 312 323 327 329 331 332 332 337 334 323 318 316 318 317 308 299 298 298 294 289 285 287 285 282 284 281 273 274 277 265 262 266 151 132
Height
1464 1460 1460 1462 1461 1459 1462 1464 1471 1471 1469 1465 1462 1465 1467 1468 1471 1472 1475 1478 1480 1483 1486 1488 1491 1492 1494 1497 1499 1500 1502 1504 1506 1508 1510 1512 1513 1515 1516 1518 1519 1520 1522 1523
1470 1462 1460 1462 1459 1457 1457 1457 1461 1464 1466 1460 1462 1464 1468 1469 1472 1474 1477 1479 1481 1483 1485 1488 1490 1491 1493 1495 1497 1499 1500 1502 1504 1505 1507 1509 1510 1512 1513 1515 1516 1517 1519 1520
1479 1467 1465 1468 1457 1457 1456 1455 1458 1465 1465 1462 1465 1466 1470 1471 1473 1475 1478 1480 1481 1483 1485 1487 1489 1490 1491 1493 1495 1497 1498 1500 1501 1503 1504 1506 1507 1509 1510 1512 1513 1515 1516 1517
1479 1479 1489 1464 1449 1451 1455 1456 1455 1457 1461 1464 1467 1470 1472 1474 1476 1477 1480 1480 1481 1483 1484 1486 1487 1489 1490 1491 1492 1494 1496 1498 1499 1500 1502 1503 1505 1506 1507 1509 1510 1512 1513 1514
1480 1482 1474 1460 1454 1453 1457 1462 1458 1459 1462 1465 1468 1470 1474 1476 1478 1479 1480 1481 1481 1482 1483 1485 1486 1487 1488 1489 1490 1492 1493 1495 1497 1498 1499 1500 1502 1503 1504 1506 1507 1508 1510 1511
1478 1484 1483 1467 1457 1455 1457 1465 1463 1463 1465 1467 1469 1470 1476 1477 1478 1479 1479 1481 1481 1482 1482 1483 1484 1485 1487 1488 1489 1489 1491 1493 1494 1496 1496 1497 1499 1500 1502 1503 1504 1505 1506 1507
1477 1479 1471 1464 1460 1459 1470 1473 1467 1467 1469 1470 1471 1474 1477 1478 1479 1480 1480 1481 1481 1481 1482 1482 1482 1483 1484 1485 1486 1487 1489 1490 1491 1493 1493 1494 1496 1497 1499 1500 1502 1503 1503 1504
1475 1480 1479 1468 1465 1469 1473 1470 1470 1470 1471 1472 1474 1476 1477 1478 1479 1480 1480 1481 1481 1481 1481 1481 1481 1482 1482 1483 1484 1485 1487 1488 1489 1490 1491 1492 1493 1494 1496 1497 1498 1499 1500 1500
1472 1477 1473 1471 1472 1472 1472 1472 1472 1472 1473 1474 1475 1477 1478 1479 1480 1480 1480 1481 1481 1481 1480 1480 1480 1480 1480 1481 1482 1483 1484 1485 1487 1488 1488 1489 1490 1491 1492 1494 1495 1495 1496 1497
1472 1471 1471 1473 1473 1474 1474 1474 1473 1473 1474 1475 1476 1476 1477 1478 1479 1480 1480 1480 1480 1480 1480 1479 1479 1479 1479 1480 1480 1481 1482 1482 1484 1485 1485 1486 1486 1488 1489 1489 1490 1491 1492 1492
1473 1473 1474 1473 1474 1474 1474 1473 1473 1473 1473 1474 1475 1475 1476 1477 1477 1478 1478 1479 1478 1478 1478 1478 1477 1477 1477 1477 1478 1479 1479 1480 1481 1482 1482 1482 1483 1483 1484 1485 1486 1487 1487 1488
1474 1474 1475 1474 1474 1473 1473 1472 1472 1472 1472 1473 1474 1475 1475 1476 1475 1476 1476 1476 1476 1476 1476 1476 1475 1475 1475 1475 1476 1476 1476 1476 1477 1478 1478 1478 1479 1480 1480 1481 1482 1483 1483 1484
1474 1475 1475 1475 1474 1473 1473 1472 1471 1471 1472 1472 1473 1473 1474 1474 1474 1474 1474 1474 1474 1474 1473 1473 1473 1472 1472 1472 1472 1472 1473 1473 1474 1474 1475 1475 1475 1475 1476 1477 1477 1478 1479 1480
1475 1475 1475 1474 1474 1473 1472 1471 1471 1471 1471 1471 1471 1472 1472 1472 1472 1472 1471 1471 1471 1471 1471 1470 1470 1469 1469 1469 1469 1469 1469 1470 1470 1470 1470 1471 1471 1471 1472 1472 1472 1472 1473 1474
1475 1475 1474 1473 1473 1472 1471 1470 1469 1470 1470 1470 1470 1470 1470 1469 1469 1469 1469 1468 1468 1468 1467 1467 1466 1466 1465 1465 1465 1465 1466 1466 1466 1466 1466 1466 1466 1467 1468 1467 1468 1468 1469 1469
1473 1473 1472 1471 1471 1470 1469 1468 1468 1468 1468 1468 1467 1467 1467 1467 1467 1466 1466 1465 1465 1464 1464 1463 1463 1462 1462 1462 1461 1461 1461 1462 1462 1462 1462 1462 1462 1463 1464 1464 1464 1465 1464 1465
1471 1471 1471 1470 1469 1469 1468 1467 1466 1466 1465 1465 1465 1465 1465 1464 1463 1463 1462 1462 1461 1461 1460 1460 1459 1458 1458 1457 1457 1457 1457 1457 1458 1458 1458 1459 1459 1459 1459 1460 1460 1460 1461 1460
1469 1469 1469 1468 1468 1467 1466 1465 1465 1464 1463 1462 1462 1462 1461 1460 1460 1459 1458 1458 1457 1456 1456 1455 1455 1454 1454 1453 1453 1453 1453 1453 1453 1453 1454 1454 1455 1455 1455 1455 1456 1456 1456 1457
1466 1466 1466 1465 1465 1464 1463 1463 1462 1461 1460 1460 1459 1458 1457 1457 1456 1455 1455 1453 1452 1452 1451 1451 1450 1449 1449 1449 1449 1449 1449 1449 1449 1449 1450 1450 1450 1451 1451 1451 1451 1451 1451 1452
1464 1464 1463 1462 1462 1461 1460 1460 1459 1458 1457 1456 1455 1454 1454 1453 1452 1451 1450 1449 1449 1448 1447 1447 1446 1445 1445 1445 1445 1445 1445 1444 1444 1444 1445 1446 1446 1446 1446 1446 1446 1447 1447 1447
1462 1461 1461 1460 1459 1458 1457 1456 1455 1454 1454 1453 1452 1451 1450 1450 1449 1448 1447 1446 1445 1444 1444 1443 1442 1442 1441 1441 1441 1441 1441 1440 1440 1441 1441 1441 1441 1441 1442 1442 1442 1442 1443 1443
1460 1459 1458 1458 1457 1455 1454 1453 1452 1451 1450 1450 1449 1448 1447 1446 1445 1445 1444 1444 1442 1441 1441 1440 1439 1439 1438 1438 1438 1438 1437 1437 1437 1437 1437 1437 1437 1437 1438 1438 1438 1438 1438 1439
1457 1457 1456 1455 1454 1453 1451 1450 1449 1448 1447 1446 1445 1445 1444 1443 1443 1442 1442 1441 1440 1438 1438 1437 1436 1436 1435 1435 1435 1435 1434 1434 1434 1433 1433 1433 1433 1433 1434 1434 1434 1434 1434 1435
1455 1454 1453 1452 1451 1449 1448 1446 1446 1445 1444 1444 1443 1442 1441 1441 1440 1440 1439 1438 1437 1436 1435 1434 1434 1433 1432 1431 1431 1431 1431 1431 1430 1430 1430 1430 1430 1430 1430 1430 1431 1431 1431 1431
1452 1451 1450 1449 1447 1446 1445 1444 1443 1442 1442 1441 1440 1439 1439 1438 1438 1437 1436 1435 1434 1434 1433 1432 1431 1430 1429 1429 1429 1428 1428 1427 1426 1426 1426 1427 1427 1427 1427 1427 1427 1428 1428 1428
1449 1448 1447 1446 1445 1444 1443 1442 1441 1440 1439 1439 1438 1438 1437 1437 1436 1435 1434 1433 1432 1432 1431 1430 1428 1427 1427 1427 1426 1426 1426 1425 1425 1424 1424 1424 1424 1424 1424 1424 1424 1424 1424 1425
1447 1446 1445 1444 1443 1442 1441 1440 1439 1438 1438 1437 1437 1436 1436 1435 1434 1433 1433 1432 1431 1430 1429 1428 1427 1426 1425 1425 1424 1424 1423 1423 1422 1422 1422 1421 1421 1421 1421 1421 1421 1421 1421 1421